Location: Brno
(49.2000°N, 16.6330°E)
Time: 14:33:59
(UTC+02:00)

Daily predictions for brighter satellites

Satellite Brightness Start Highest point End
(mag) Time Altitude Azimuth Time Altitude Azimuth Time Altitude Azimuth
Meteor 2-16 Rocket 4.5 20:21:13 10° S 20:27:17 68° E 20:33:21 10° NNE
USA 234 4.2 20:26:24 10° ENE 20:32:34 46° N 20:38:44 10° WNW
Meteor 1-27 4.2 20:27:28 10° S 20:33:09 76° E 20:38:48 10° NNE
Cosmos 2278 Rocket 2.5 20:27:35 10° NNW 20:33:17 76° WSW 20:38:56 10° SSE
Aureole 2 4.0 20:30:41 10° SSW 20:33:35 64° ESE 20:36:35 10° NNE
ERS-1 Rocket 4.4 20:30:51 10° ESE 20:34:40 22° ENE 20:38:31 10° N
SJ-6B 4.1 20:31:07 10° S 20:34:56 44° W 20:38:42 10° NNW
Cosmos 1455 2.3 20:33:15 10° S 20:37:07 86° WNW 20:41:01 10° N
Cosmos 407 Rocket 3.8 20:32:37 10° NNW 20:37:39 52° ENE 20:42:39 10° SE
Resurs 1-3 3.6 20:34:47 10° SSE 20:39:11 88° ENE 20:43:36 10° NNW
NOAA 11 4.3 20:36:29 10° SSE 20:41:55 65° ENE 20:47:23 10° N
Cosmos 1869 3.9 20:38:24 10° SSE 20:42:07 37° E 20:45:52 10° NNE
Cosmos 1633 Rocket 4.4 20:40:42 10° NNW 20:44:49 42° W 20:48:55 10° SSW
ATLAS CENTAUR R/B 1.3 20:42:38 10° SW 20:46:20 77° NW 20:50:17 10° NE
CZ-4C R/B 3.8 20:46:18 10° SE 20:48:13 12° ESE 20:50:13 10° E
Cosmos 1939 Rocket 3.4 20:48:10 10° S 20:52:01 59° W 20:55:56 10° NNW
Lacrosse 5 2.8 20:48:37 10° NW 20:53:27 42° NNE 20:58:16 10° E
Cosmos 1371 Rocket 4.1 20:51:34 10° S 20:56:46 56° ESE 21:02:02 10° NNE
ATLAS 2AS CENTAUR R/B 4.1 20:51:45 10° NW 20:58:58 40° WSW 21:05:40 10° S
Cosmos 676 Rocket 4.3 20:56:00 10° NNW 21:01:10 53° ENE 21:05:42 13° SE
SPOT 5 4.2 20:58:36 11° ESE 21:01:38 21° ENE 21:04:55 10° NNE
Cosmos 1515 Rocket 3.7 20:58:07 10° SSW 21:02:35 80° W 21:07:05 10° N
H-2A R/B 2.6 21:00:49 12° SE 21:05:04 40° ENE 21:09:40 10° N
CZ-4B DEB 4.4 21:02:41 10° SSE 21:06:10 73° ENE 21:09:40 10° N
Cosmos 1943 Rocket 3.8 21:03:51 10° N 21:08:00 21° NE 21:12:09 10° E
ARGOS 3.3 21:05:33 11° SSE 21:10:35 58° ENE 21:15:52 10° N
Meteor 2-10 Rocket 3.8 21:05:47 10° S 21:11:28 61° E 21:17:12 10° NNE
Cosmos 1825 3.1 21:11:17 10° NNW 21:14:57 48° W 21:18:36 10° S
USA 186 4.1 21:14:02 10° SW 21:15:21 14° W 21:16:42 10° WNW
NOSS 0 Rocket 4.3 21:11:09 10° SW 21:17:20 71° WNW 21:23:34 10° NNE
Cosmos 2056 Rocket 3.5 21:12:32 10° S 21:17:54 67° ESE 21:23:15 10° NNE
Cosmos 405 Rocket 3.3 21:15:03 13° SSE 21:18:14 38° E 21:21:56 10° NNE
Cosmos 1452 Rocket 4.4 21:14:25 11° SSE 21:18:44 29° E 21:23:13 10° NE
BREEZE-M DEB (TANK) 2.3 21:12:15 10° W 21:19:02 84° N 21:21:03 16° E
SL-16 R/B 2.4 21:13:49 10° S 21:19:15 51° ESE 21:24:44 10° NE
Cosmos 2228 Rocket 4.0 21:17:34 10° SSW 21:21:51 52° WNW 21:26:11 10° N
Cosmos 1140 Rocket 3.5 21:19:19 10° NNW 21:24:30 68° ENE 21:28:16 18° SE
Cosmos 1437 Rocket 4.0 21:21:51 10° N 21:25:10 26° ENE 21:26:47 20° ESE
Cosmos 1727 Rocket 4.0 21:21:44 10° N 21:27:56 86° W 21:34:07 10° S
NOSS 3-4 (A) 4.1 21:23:12 10° NW 21:30:05 64° SW 21:36:24 15° SSE
NOSS 3-4 (C) 4.1 21:23:18 10° NW 21:30:11 65° SW 21:36:28 15° SSE
Cosmos 1862 3.2 21:27:00 10° N 21:31:05 84° E 21:34:05 17° SSE
Cosmos 1624 Rocket 4.0 21:29:07 10° SSW 21:34:19 88° WNW 21:39:34 10° NNE
USA 245 2.8 21:34:47 33° E 21:34:53 33° ENE 21:36:58 10° N
Cosmos 2098 Rocket 3.0 21:32:18 10° SSW 21:36:29 67° W 21:39:53 10° N
USA 267 4.5 21:33:42 10° E 21:37:07 18° ESE 21:37:07 18° ESE
Helios 1B rocket 3.7 21:35:48 10° NE 21:39:06 22° E 21:39:30 22° ESE
RESURS DK-1 3.8 21:36:53 10° NNW 21:40:28 27° NE 21:42:27 19° E
Cosmos 1954 Rocket 4.0 21:38:06 10° NNW 21:43:21 85° WSW 21:46:50 21° SSE
Cosmos 1603 4.5 21:44:48 24° SE 21:46:49 30° ESE 21:51:37 10° NE
Landsat 7 4.5 21:46:10 25° ESE 21:48:23 41° ENE 21:52:51 10° N
MetOp-A 4.3 21:44:03 15° S 21:48:35 73° WSW 21:53:58 10° NNW
Cosmos 2297 4.4 21:43:28 10° NW 21:48:56 50° WSW 21:53:32 15° S
Resurs 01 Rocket 4.0 21:45:59 10° SW 21:49:22 21° W 21:52:46 10° NW
Cosmos 2369 Rocket 2.8 21:44:51 10° NNW 21:50:21 46° NE 21:53:26 24° ESE
Cosmos 2344 3.7 21:45:02 10° SSW 21:52:17 51° ESE 22:00:23 10° NE
Cosmos 921 Rocket 4.2 21:54:58 24° E 21:54:58 24° E 21:58:20 10° NE
Cosmos 1862 Rocket 4.4 21:55:28 29° ESE 21:56:11 30° E 22:00:01 10° NNE
BREEZE-M DEB (TANK) 1.7 21:56:33 10° W 21:58:45 79° N 21:59:02 63° ENE
SL-8 R/B 3.6 21:55:23 10° WSW 22:00:11 76° S 22:03:29 20° E
Cosmos 2333 Rocket 4.4 21:57:16 10° WSW 22:02:06 28° NW 22:06:57 10° NNE
Cosmos 614 Rocket 4.4 21:59:39 10° NNW 22:04:47 58° WSW 22:07:58 22° S
Cosmos 1241 Rocket 4.5 21:58:38 10° NW 22:04:56 80° SW 22:08:29 28° SSE
Terra 2.5 22:04:35 30° ESE 22:06:14 41° ENE 22:10:43 10° N
ATLAS 5 CENTAUR R/B 2.5 22:03:36 10° NW 22:09:19 65° NE 22:12:39 29° ESE
Meteor 1-14 Rocket 4.3 22:03:50 10° N 22:09:20 60° ENE 22:11:43 33° SE
Cosmos 2237 Rocket 3.8 22:06:04 10° WSW 22:11:13 36° NW 22:16:24 10° NNE
Helios 1A 3.0 22:10:41 34° S 22:12:27 77° WSW 22:16:39 10° NNW
ERS-1 Rocket 3.3 22:09:55 22° S 22:13:04 61° WSW 22:18:04 10° NNW
USA 234 3.8 22:09:11 13° E 22:14:59 54° NNE 22:21:19 10° WNW
Cosmos 1461 4.2 22:11:10 10° NNW 22:15:40 38° NE 22:17:41 26° E
Cosmos 1707 Rocket 3.9 22:13:45 16° SSW 22:17:06 63° WNW 22:21:26 10° N
Cosmos 1606 3.8 22:18:20 29° ENE 22:18:20 29° ENE 22:21:22 10° NNE
Cosmos 1420 Rocket 3.9 22:14:39 18° SSW 22:18:41 75° ESE 22:24:01 10° NNE
SL-19 R/B 4.2 22:17:16 33° SSE 22:19:56 85° ENE 22:25:38 10° NNW
GEOS 3 Rocket 3.9 22:17:11 10° NE 22:22:19 44° ESE 22:23:52 35° SSE
Cosmos 1605 Rocket 4.4 22:20:45 33° SE 22:23:08 48° E 22:29:14 10° NNE
Meteor 1-25 Rocket 4.2 22:18:48 10° N 22:24:34 75° ENE 22:26:51 38° SSE
Cosmos 1933 3.7 22:22:30 24° SSW 22:24:47 62° WNW 22:28:51 10° N
GENESIS II 4.2 22:21:10 10° NW 22:25:08 73° SW 22:25:46 58° S
ATLAS CENTAUR R/B 4.3 22:23:25 10° WNW 22:26:01 17° NNW 22:28:42 10° NNE
Cosmos 1733 Rocket 3.1 22:26:28 10° NNW 22:30:53 77° W 22:32:07 46° S
IGS 5A 3.4 22:30:40 57° SE 22:31:24 73° ENE 22:35:35 10° N
CZ-2C R/B 3.4 22:30:19 38° ESE 22:31:25 45° ENE 22:36:04 10° N
CARTOSAT-1 3.5 22:33:29 56° SE 22:34:20 78° ENE 22:38:40 10° N
Meteor 1-26 Rocket 4.1 22:31:59 32° S 22:34:38 82° E 22:40:15 10° NNE
CZ-4C R/B 2.1 22:30:33 13° SSW 22:35:19 70° SE 22:41:25 10° NE
SPOT 1/Viking Rocket 3.8 22:34:16 33° S 22:36:33 65° WSW 22:41:45 10° NNW
Lacrosse 5 1.8 22:31:41 10° WNW 22:36:46 77° SW 22:38:02 51° SE
Cosmos 1782 3.6 22:37:24 37° ENE 22:37:24 37° ENE 22:40:37 10° NNE
DMSP B5D2-2 4.0 22:31:42 10° NNE 22:37:00 87° WNW 22:39:48 29° SSW
Meteor 1-29 3.3 22:33:53 10° NNE 22:36:44 54° NE 22:36:44 54° NE
Cosmos 1633 2.4 22:34:05 10° N 22:37:40 83° W 22:37:44 82° WSW
SPOT 5 3.2 22:37:50 34° SSW 22:39:26 52° W 22:43:45 10° NNW
Meteor 1-20 Rocket 4.1 22:38:15 10° NNW 22:43:45 85° W 22:45:35 44° S
H-2A R/B 3.4 22:41:27 16° SSW 22:44:35 30° W 22:48:58 10° NNW
Meteor 1-4 Rocket 2.6 22:41:39 10° NNW 22:45:00 68° W 22:45:00 68° W
Cosmos 1934 Rocket 3.9 22:43:15 30° SSW 22:46:29 85° W 22:52:35 10° N
YAOGAN 11 3.9 22:47:28 68° SSE 22:47:59 87° ENE 22:52:21 10° NNW
Sich 1 Rocket 3.8 22:44:26 10° N 22:48:57 55° ENE 22:49:20 53° E
Cosmos 1110 Rocket 4.4 22:50:47 44° ESE 22:50:51 44° ESE 22:55:55 10° NE
Cosmos 1943 Rocket 2.0 22:46:59 10° NNW 22:52:33 88° ENE 22:53:57 53° SSE
Okean 1-7 4.2 22:53:43 30° ENE 22:53:43 30° ENE 22:56:45 10° NNE
Cosmos 1602 4.3 22:49:27 10° N 22:52:59 46° ENE 22:52:59 46° ENE
Cosmos 1271 Rocket 4.3 22:50:21 10° N 22:53:23 25° ENE 22:53:23 25° ENE
Cosmos 1656 Rocket 4.3 22:49:20 10° NNW 22:54:50 46° NE 22:56:32 36° E
Cosmos 1782 Rocket 3.9 22:51:19 10° N 22:55:43 51° ENE 22:55:51 51° E
Cosmos 389 Rocket 3.2 22:52:48 10° N 22:55:31 46° NNE 22:55:31 46° NNE
Gblst 52 Del rocket 4.0 22:51:35 10° SW 22:56:59 60° SSE 23:02:30 10° ENE
Okean 2 Rocket 4.0 22:56:13 10° N 23:00:14 35° ENE 23:00:14 35° ENE
Cosmos 1452 Rocket 4.5 22:55:37 10° SW 23:00:39 46° WNW 23:05:44 10° NNE
Cosmos 1437 Rocket 4.3 22:58:04 10° NNW 23:01:26 28° W 23:02:14 26° WSW
SeaSat 1 4.4 23:00:09 16° ENE 23:02:28 21° NE 23:06:08 10° N
SL-16 R/B 3.8 22:58:29 10° WSW 23:03:36 34° NW 23:08:45 10° NNE
Cosmos 1153 Rocket 4.5 23:09:13 50° SSE 23:10:56 72° E 23:17:18 10° NNE
Cosmos 2242 Rocket 4.5 23:10:20 33° WSW 23:11:44 44° WNW 23:15:59 10° N
Helios 1B rocket 3.6 23:10:39 10° N 23:14:32 40° WNW 23:15:51 31° WSW
RESURS DK-1 3.3 23:14:44 10° NW 23:18:21 40° W 23:18:21 40° W
USA 267 3.2 23:15:29 10° ENE 23:21:59 61° SE 23:24:23 39° SSW
SAR-Lupe-4 4.5 23:24:30 48° NW 23:24:30 48° NW 23:27:13 10° NNW
Cosmos 1703 Rocket 3.6 23:24:25 76° NNE 23:24:25 76° NNE 23:28:26 10° N
Cosmos 2100 Rocket 4.1 23:24:59 53° SE 23:26:02 60° E 23:32:19 10° NNE
Cosmos 1908 Rocket 4.2 23:22:36 10° NNW 23:26:53 48° W 23:27:06 47° WSW
H-2A R/B 3.3 23:29:36 33° ENE 23:29:38 33° ENE 23:33:41 10° N
Cosmos 1802 Rocket 4.2 23:29:05 48° ESE 23:29:44 50° E 23:35:43 10° NNE
Cosmos 1603 4.4 23:26:35 18° SW 23:30:40 52° NW 23:36:11 10° NNE
Cosmos 1943 3.2 23:29:44 49° SW 23:31:20 82° WNW 23:37:04 10° NNE
Cosmos 2221 Rocket 3.9 23:33:17 58° NE 23:33:17 58° NE 23:37:13 10° NNE
Cosmos 921 Rocket 4.2 23:31:42 31° W 23:32:57 39° WNW 23:36:59 10° N
Cosmos 2061 Rocket 4.2 23:32:59 51° ESE 23:33:52 55° E 23:40:08 10° NNE
Cosmos 2369 Rocket 3.1 23:29:08 10° NW 23:34:16 35° WSW 23:35:14 33° SW
Cosmos 1174 4.2 23:36:29 66° NW 23:36:29 66° NW 23:40:17 10° NNE
CZ-2C R/B 2.5 23:33:11 10° NNE 23:38:37 83° ESE 23:39:06 74° SSE
Meteor 1-11 Rocket 3.5 23:34:43 10° NNW 23:40:23 87° WSW 23:40:56 73° S
Cosmos 1302 Rocket 4.2 23:42:40 57° E 23:42:40 57° E 23:47:16 10° NNE
SL-8 R/B 4.2 23:37:53 10° W 23:41:28 49° W 23:41:28 49° W
Terra 3.2 23:43:28 27° WSW 23:44:07 28° W 23:48:13 10° NW
Meteor 1-27 Rocket 3.6 23:50:48 73° SSE 23:51:22 82° E 23:57:11 10° NNE
ALOS 2 3.2 23:53:42 51° NE 23:53:42 51° NE 23:57:29 10° N
ATLAS 5 CENTAUR R/B 3.3 23:48:35 10° WNW 23:53:52 33° WSW 23:54:11 33° SW
Cosmos 1461 4.1 23:50:25 10° NW 23:54:05 38° W 23:54:05 38° W
